Date String (YYYY-MM-DD hh:mm:ss) UTC,Instrument flags,Ambient pressure (hPa),Sample flow (lpm),Bypass flow (lpm),Sample temperature (°C),Ambient temperature (°C),ASC tube jacket temperature (°C),LED temperature (°C),Box temperature (°C),Sample RH (%),Span deviation,Mass concentration (μg/m³),Mass concentration (μg/m³),Mass concentration (μg/m³)
DateTimeUTC,F1_M11,P_M11,Q1_M11,Q2_M11,T1_M11,T2_M11,T3_M11,T4_M11,T5_M11,U1_M11,ZSPAN_M11,X2_M11,X0_M11,X1_M11
2023-05-30 12:00:00,,0830.1,4.99,0.00,29.3,27.6,00.0,37.7,30.9,21.9,0000.0,0004.72,0010.37,0003.78
2023-05-30 12:01:00,,0830.1,5.00,0.00,29.3,27.6,00.0,37.7,30.9,21.8,0000.0,0004.77,0009.72,0003.79
2023-05-30 12:02:00,,0830.1,5.00,0.00,29.3,27.6,00.0,37.7,30.9,21.8,0000.0,0004.78,0009.63,0003.79
2023-05-30 12:03:00,,0830.1,5.01,0.00,29.3,27.6,00.0,37.7,30.9,21.6,0000.0,0004.74,0010.00,0003.78
2023-05-30 12:04:00,,0830.1,5.02,0.00,29.3,27.6,00.0,37.7,30.9,21.6,0000.0,0004.73,0009.90,0003.77
2023-05-30 12:05:00,,0830.1,5.00,0.00,29.3,27.6,00.0,37.7,30.9,21.6,0000.0,0004.77,0010.06,0003.77
2023-05-30 12:06:00,,0830.1,5.00,0.00,29.3,27.6,00.0,37.7,30.9,21.7,0000.0,0004.74,0010.08,0003.76
2023-05-30 12:07:00,,0830.1,5.00,0.00,29.3,27.6,00.0,37.7,30.9,21.8,0000.0,0004.72,0009.49,0003.75
2023-05-30 12:08:00,,0830.1,5.00,0.00,29.3,27.6,00.0,37.7,30.9,21.7,0000.0,0004.74,0009.57,0003.75
2023-05-30 12:09:00,,0830.1,5.00,0.00,29.3,27.6,00.0,37.7,30.9,21.6,0000.0,0004.73,0009.56,0003.75
2023-05-30 12:10:00,,0830.1,5.00,0.00,29.3,27.6,00.0,37.7,30.9,21.6,0000.0,0004.74,0009.63,0003.75
2023-05-30 12:11:00,,0830.1,5.00,0.00,29.3,27.6,00.0,37.7,30.9,21.5,0000.0,0004.73,0009.76,0003.74
2023-05-30 12:12:00,,0830.1,5.00,0.00,29.3,27.5,00.0,37.7,30.9,21.3,0000.0,0004.70,0009.71,0003.75
2023-05-30 12:13:00,,0830.1,5.00,0.00,29.3,27.5,00.0,37.7,30.9,21.3,0000.0,0004.67,0009.79,0003.73
2023-05-30 12:14:00,,0830.1,5.00,0.00,29.3,27.5,00.0,37.7,30.8,21.3,0000.0,0004.70,0009.66,0003.74
2023-05-30 12:15:00,,0830.1,5.00,0.00,29.3,27.5,00.0,37.7,30.8,21.3,0000.0,0004.70,0009.70,0003.74
2023-05-30 12:16:00,,0830.1,5.00,0.00,29.3,27.5,00.0,37.7,30.8,21.2,0000.0,0004.73,0010.47,0003.74
2023-05-30 12:17:00,,0830.1,5.01,0.00,29.3,27.5,00.0,37.6,30.8,21.1,0000.0,0004.84,0010.72,0003.75
2023-05-30 12:18:00,,0830.1,5.00,0.00,29.3,27.5,00.0,37.6,30.8,21.0,0000.0,0004.92,0011.60,0003.76
2023-05-30 12:19:00,,0830.1,4.99,0.00,29.3,27.5,00.0,37.6,30.8,20.9,0000.0,0004.95,0012.06,0003.76
2023-05-30 12:20:00,,0830.0,5.00,0.00,29.3,27.5,00.0,37.6,30.8,20.9,0000.0,0004.96,0013.07,0003.75
2023-05-30 12:21:00,,0830.1,5.00,0.00,29.3,27.5,00.0,37.6,30.8,20.8,0000.0,0004.99,0013.75,0003.76
2023-05-30 12:22:00,,0830.1,4.99,0.00,29.2,27.5,00.0,37.6,30.8,20.7,0000.0,0004.98,0014.46,0003.76
2023-05-30 12:23:00,,0830.1,5.00,0.00,29.2,27.5,00.0,37.6,30.8,20.7,0000.0,0004.95,0015.10,0003.75
2023-05-30 12:24:00,,0830.1,5.00,0.00,29.2,27.5,00.0,37.6,30.8,20.7,0000.0,0005.02,0015.53,0003.76
2023-05-30 12:25:00,,0830.1,5.01,0.00,29.2,27.5,00.0,37.6,30.8,20.7,0000.0,0005.04,0015.70,0003.77
2023-05-30 12:26:00,,0830.1,5.01,0.00,29.2,27.5,00.0,37.6,30.8,20.6,0000.0,0005.08,0016.74,0003.76
2023-05-30 12:27:00,,0830.1,5.01,0.00,29.2,27.5,00.0,37.6,30.8,20.6,0000.0,0005.08,0016.56,0003.77
2023-05-30 12:28:00,,0830.0,5.00,0.00,29.2,27.5,00.0,37.6,30.8,20.5,0000.0,0005.01,0016.32,0003.76
2023-05-30 12:29:00,,0830.1,5.01,0.00,29.2,27.5,00.0,37.6,30.8,20.4,0000.0,0004.93,0015.92,0003.76
2023-05-30 12:30:00,,0830.0,5.00,0.00,29.2,27.5,00.0,37.6,30.8,20.4,0000.0,0004.91,0015.93,0003.75
2023-05-30 12:31:00,,0830.0,5.01,0.00,29.2,27.5,00.0,37.6,30.8,20.5,0000.0,0004.96,0016.18,0003.75
2023-05-30 12:32:00,,0830.1,5.00,0.00,29.2,27.5,00.0,37.6,30.8,20.5,0000.0,0004.94,0015.41,0003.74
2023-05-30 12:33:00,,0830.0,4.99,0.00,29.2,27.5,00.0,37.6,30.8,20.5,0000.0,0004.92,0014.63,0003.73
2023-05-30 12:34:00,,0830.0,4.99,0.00,29.2,27.5,00.0,37.6,30.8,20.9,0000.0,0004.90,0014.32,0003.72
2023-05-30 12:35:00,,0830.0,5.00,0.00,29.2,27.5,00.0,37.6,30.8,20.6,0000.0,0004.88,0014.83,0003.70
2023-05-30 12:36:00,,0830.0,4.99,0.00,29.2,27.5,00.0,37.6,30.8,20.4,0000.0,0004.86,0014.21,0003.69
2023-05-30 12:37:00,,0830.0,4.99,0.00,29.2,27.6,00.0,37.6,30.8,20.4,0000.0,0004.83,0013.21,0003.68
2023-05-30 12:38:00,,0830.0,5.00,0.00,29.2,27.6,00.0,37.6,30.8,20.6,0000.0,0004.72,0012.37,0003.66
2023-05-30 12:39:00,,0830.0,5.00,0.00,29.2,27.5,00.0,37.6,30.8,20.7,0000.0,0004.72,0012.28,0003.66
2023-05-30 12:40:00,,0830.0,5.00,0.00,29.2,27.5,00.0,37.6,30.8,20.5,0000.0,0004.72,0012.07,0003.65
2023-05-30 12:41:00,,0830.0,5.00,0.00,29.2,27.5,00.0,37.6,30.8,20.6,0000.0,0004.68,0012.06,0003.64
2023-05-30 12:42:00,,0830.0,5.00,0.00,29.2,27.5,00.0,37.6,30.8,20.8,0000.0,0004.59,0011.03,0003.63
2023-05-30 12:43:00,,0830.0,5.00,0.00,29.2,27.5,00.0,37.6,30.8,21.0,0000.0,0004.58,0010.71,0003.63
2023-05-30 12:44:00,,0830.0,5.00,0.00,29.2,27.5,00.0,37.6,30.8,21.1,0000.0,0004.56,0010.79,0003.63
2023-05-30 12:45:00,,0830.0,5.00,0.00,29.2,27.5,00.0,37.6,30.8,21.9,0000.0,0004.59,0010.98,0003.63
2023-05-30 12:46:00,,0830.1,5.00,0.00,29.2,27.5,00.0,37.6,30.8,23.1,0000.0,0004.62,0010.05,0003.65
2023-05-30 12:47:00,,0830.0,5.01,0.00,29.2,27.5,00.0,37.6,30.8,24.4,0000.0,0004.68,0010.69,0003.66
2023-05-30 12:48:00,,0830.0,5.01,0.00,29.2,27.5,00.0,37.6,30.8,23.8,0000.0,0004.67,0011.53,0003.67
2023-05-30 12:49:00,,0830.0,5.00,0.00,29.2,27.5,00.0,37.6,30.8,23.8,0000.0,0004.71,0011.80,0003.67
2023-05-30 12:50:00,,0830.1,5.00,0.00,29.2,27.4,00.0,37.6,30.8,23.7,0000.0,0004.78,0012.47,0003.68
2023-05-30 12:51:00,,0830.1,4.99,0.00,29.2,27.4,00.0,37.6,30.8,23.8,0000.0,0004.82,0012.79,0003.69
2023-05-30 12:52:00,,0830.1,5.00,0.00,29.2,27.4,00.0,37.6,30.7,23.6,0000.0,0004.92,0013.43,0003.70
2023-05-30 12:53:00,,0830.1,5.01,0.00,29.1,27.4,00.0,37.5,30.7,23.6,0000.0,0005.00,0013.52,0003.73
2023-05-30 12:54:00,,0830.1,5.00,0.00,29.1,27.3,00.0,37.5,30.7,23.6,0000.0,0005.02,0014.06,0003.75
2023-05-30 12:55:00,,0830.1,4.99,0.00,29.1,27.3,00.0,37.5,30.7,23.4,0000.0,0005.03,0014.09,0003.76
2023-05-30 12:56:00,,0830.1,5.00,0.00,29.1,27.3,00.0,37.5,30.7,23.5,0000.0,0005.03,0013.53,0003.77
2023-05-30 12:57:00,,0830.1,5.01,0.00,29.1,27.3,00.0,37.5,30.7,23.4,0000.0,0004.97,0013.29,0003.78
2023-05-30 12:58:00,,0830.2,5.00,0.00,29.1,27.3,00.0,37.5,30.7,23.3,0000.0,0004.92,0013.96,0003.78
2023-05-30 12:59:00,,0830.2,5.01,0.00,29.1,27.3,00.0,37.5,30.7,23.6,0000.0,0004.90,0013.22,0003.78
